Broomfield, CO

2:36 PM MDT on August 20, 2017 (GMT -0600)
Jeffco

Weather History for KBJC - November, 2011

Change the Weather History Date:

Monday, November 7, 2011

  Actual Average Record
Temperature  
Mean Temperature 36 °F -  
Max Temperature 41 °F 51 °F 75 °F (1999)
Min Temperature 32 °F 31 °F 9 °F (1990)
Degree Days  
Heating Degree Days 28    
Moisture  
Dew Point 21 °F    
Average Humidity 62    
Maximum Humidity 93    
Minimum Humidity 41    
Precipitation  
Precipitation 0.00 in - - ()
Sea Level Pressure  
Sea Level Pressure 30.02 in    
Wind  
Wind Speed 9 mph (NNW)    
Max Wind Speed 13 mph    
Max Gust Speed -    
Visibility 11 miles    
Events      
Averages and records for this station are not official NWS values.
T = Trace of Precipitation, MM = Missing Value Source: NWS Daily Summary

Daily Weather History Graph

Daily Weather History Graph

Search for Another Location

Airport or City:

Trip Planner

Search our weather history database for the weather conditions in past years. The results will help you decide how hot, cold, wet, or windy it might be!

Date:

Astronomy

Nov. 07, 2011 Rise Set
Actual Time 6:35 AM MST 4:51 PM MST
Civil Twilight 6:07 AM MST 5:20 PM MST
Nautical Twilight 5:35 AM MST 5:52 PM MST
Astronomical Twilight 5:03 AM MST 6:24 PM MST
Moon 3:03 PM MST (11/7) 3:41 AM MST (11/7)
Length of Visible Light 11h 12m
Length of Day
10h 15m
Waxing Gibbous, 92% of the Moon is Illuminated
Nov 7
Waxing Gibbous
Nov 10
Full
Nov 18
Last Quarter
Nov 24
New
Dec 2
First Quarter

Hourly Weather History & Observations

Time (MST) Temp. Windchill Dew Point Humidity Pressure Visibility Wind Dir Wind Speed Gust Speed Precip Events Conditions
12:07 AM 33.8 °F 24.8 °F 17.6 °F 52% 30.00 in 10.0 mi NNW 12.7 mph - N/A   Clear
12:27 AM 32.0 °F 22.5 °F 17.6 °F 55% 30.00 in 10.0 mi NNW 12.7 mph - N/A   Clear
12:47 AM 33.8 °F 24.8 °F 15.8 °F 48% 30.01 in 10.0 mi NNW 12.7 mph - N/A   Clear
1:06 AM 32.0 °F 23.0 °F 17.6 °F 55% 30.01 in 10.0 mi NNW 11.5 mph - N/A   Clear
1:27 AM 32.0 °F 23.6 °F 17.6 °F 55% 30.01 in 10.0 mi NNW 10.4 mph - N/A   Clear
1:47 AM 32.0 °F 23.6 °F 17.6 °F 55% 30.01 in 10.0 mi NNW 10.4 mph - N/A   Clear
2:07 AM 32.0 °F 24.2 °F 17.6 °F 55% 30.01 in 10.0 mi North 9.2 mph - N/A   Clear
2:27 AM 32.0 °F 24.8 °F 15.8 °F 51% 30.01 in 10.0 mi North 8.1 mph - N/A   Clear
2:47 AM 32.0 °F 25.6 °F 17.6 °F 55% 30.01 in 10.0 mi North 6.9 mph - N/A   Clear
3:07 AM 32.0 °F 25.6 °F 17.6 °F 55% 30.01 in 10.0 mi North 6.9 mph - N/A   Clear
3:27 AM 32.0 °F 24.8 °F 17.6 °F 55% 30.01 in 10.0 mi North 8.1 mph - N/A   Clear
3:47 AM 32.0 °F 24.2 °F 17.6 °F 55% 30.01 in 10.0 mi NNW 9.2 mph - N/A   Clear
4:07 AM 32.0 °F 25.6 °F 17.6 °F 55% 30.02 in 10.0 mi NNW 6.9 mph - N/A   Clear
4:47 AM 32.0 °F 26.4 °F 15.8 °F 51% 30.03 in 10.0 mi NNW 5.8 mph - N/A   Clear
5:49 AM 32.0 °F 26.4 °F 15.8 °F 51% 30.03 in 30.0 mi NW 5.8 mph - N/A   Mostly Cloudy
6:55 AM 32.0 °F 26.4 °F 15.8 °F 51% 30.04 in 50.0 mi NW 5.8 mph - N/A   Mostly Cloudy
7:45 AM 32.0 °F 24.2 °F 15.8 °F 51% 30.05 in 50.0 mi NW 9.2 mph - N/A   Mostly Cloudy
8:45 AM 37.4 °F 29.8 °F 15.8 °F 41% 30.05 in 50.0 mi NW 11.5 mph - N/A   Mostly Cloudy
9:47 AM 37.4 °F 30.8 °F 17.6 °F 45% 30.05 in 50.0 mi North 9.2 mph - N/A   Overcast
10:48 AM 39.2 °F 32.5 °F 17.6 °F 42% 30.03 in 50.0 mi North 10.4 mph - N/A   Mostly Cloudy
11:47 AM 39.2 °F 33.6 °F 17.6 °F 42% 29.99 in 50.0 mi North 8.1 mph - N/A   Scattered Clouds
1:47 PM 41.0 °F 34.3 °F 23.0 °F 49% 29.97 in 50.0 mi North 11.5 mph - N/A   Mostly Cloudy
2:47 PM 39.2 °F 32.5 °F 24.8 °F 56% 29.98 in 40.0 mi North 10.4 mph - N/A   Mostly Cloudy
3:47 PM 39.2 °F 33.0 °F 24.8 °F 56% 30.00 in 30.0 mi NNW 9.2 mph - N/A   Mostly Cloudy
4:47 PM 35.6 °F 29.9 °F 24.8 °F 65% 30.01 in 30.0 mi North 6.9 mph - N/A   Mostly Cloudy
5:50 PM 35.6 °F 29.2 °F 26.6 °F 70% 30.03 in 25.0 mi North 8.1 mph - N/A   Mostly Cloudy
6:45 PM 35.6 °F 30.7 °F 28.4 °F 75% 30.05 in 25.0 mi NNW 5.8 mph - N/A   Mostly Cloudy
7:46 PM 33.8 °F 27.7 °F 28.4 °F 81% 30.06 in 15.0 mi NW 6.9 mph - N/A   Overcast
8:49 PM 35.6 °F 30.7 °F 28.4 °F 75% 30.06 in 15.0 mi NW 5.8 mph - N/A   Overcast
9:45 PM 33.8 °F - 28.4 °F 81% 30.06 in 15.0 mi Calm Calm - N/A   Overcast
10:07 PM 33.8 °F 29.6 °F 30.2 °F 87% 30.06 in 10.0 mi NNW 4.6 mph - N/A   Overcast
10:25 PM 33.8 °F 29.6 °F 30.2 °F 87% 30.06 in 10.0 mi North 4.6 mph - N/A   Overcast
10:47 PM 32.0 °F 27.5 °F 30.2 °F 93% 30.05 in 10.0 mi NNE 4.6 mph - N/A   Overcast
11:07 PM 32.0 °F - 30.2 °F 93% 30.04 in 10.0 mi Calm Calm - N/A   Overcast
11:27 PM 32.0 °F - 30.2 °F 93% 30.04 in 10.0 mi Calm Calm - N/A   Mostly Cloudy
11:47 PM 32.0 °F - 28.4 °F 87% 30.04 in 10.0 mi Calm Calm - N/A   Mostly Cloudy